www.pogodaiklimat.ru
ПОГОДА в Жешуве

Архив погоды в Жешуве (Польша)

Время
(UTC), дата
16 21.05
17 21.05
18 21.05
19 21.05
20 21.05
21 21.05
22 21.05
23 21.05
00 22.05
01 22.05
02 22.05
03 22.05
04 22.05
05 22.05
06 22.05
07 22.05
08 22.05
09 22.05
10 22.05
11 22.05
12 22.05
13 22.05
14 22.05
15 22.05
16 22.05
17 22.05
18 22.05
19 22.05
20 22.05
21 22.05
22 22.05
23 22.05
00 23.05
01 23.05
02 23.05
03 23.05
04 23.05
05 23.05
06 23.05
07 23.05
08 23.05
09 23.05
10 23.05
11 23.05
12 23.05
13 23.05
14 23.05
15 23.05
16 23.05
17 23.05
18 23.05
19 23.05
20 23.05
21 23.05
22 23.05
23 23.05
00 24.05
01 24.05
02 24.05
03 24.05
04 24.05
05 24.05
06 24.05
07 24.05
08 24.05
09 24.05
10 24.05
11 24.05
12 24.05
13 24.05
14 24.05
15 24.05
16 24.05
17 24.05
18 24.05
19 24.05
20 24.05
21 24.05
22 24.05
23 24.05
00 25.05
01 25.05
02 25.05
03 25.05
04 25.05
05 25.05
06 25.05
07 25.05
08 25.05
09 25.05
10 25.05
11 25.05
12 25.05
13 25.05
14 25.05
15 25.05
16 25.05
17 25.05
18 25.05
19 25.05
20 25.05
21 25.05
22 25.05
23 25.05
00 26.05
01 26.05
02 26.05
03 26.05
04 26.05
05 26.05
06 26.05
07 26.05
08 26.05
09 26.05
10 26.05
11 26.05
12 26.05
13 26.05
14 26.05
15 26.05
16 26.05
17 26.05
18 26.05
19 26.05
20 26.05
21 26.05
22 26.05
23 26.05
00 27.05
01 27.05
02 27.05
03 27.05
04 27.05
05 27.05
06 27.05
07 27.05
08 27.05
09 27.05
10 27.05
11 27.05
12 27.05
13 27.05
14 27.05
15 27.05
16 27.05
17 27.05
18 27.05
19 27.05
20 27.05
21 27.05
22 27.05
23 27.05
00 28.05
01 28.05
02 28.05
03 28.05
04 28.05
05 28.05
06 28.05
07 28.05
08 28.05
09 28.05
10 28.05
11 28.05
12 28.05
13 28.05
14 28.05
15 28.05
Ветер
(напр.,м/с)
Видим. Явления Облачность Т
(С)
Тd
(С)
f
(%)
Тe
(С)
Тes
(С)
Комфортность P
(гПа)
Po
(гПа)
Тmin
(С)
Tmax
(С)
R
(мм)
R24
(мм)
S
(см)
В 5 30 км 6/1 1500 м
[Cu med, cong Ac trans Ci sp]
+25.4 +12.3 44 +27 +28 жарко 1010.7 985.9
ЮВ 3 30 км 6/1 1500 м
[Cu med, cong Ac trans Ci sp]
+24.2 +12.8 49 +26 +27 жарко 1010.6 985.7
В 2 30 км 6/0
[Ac trans Ci sp]
+22.9 +13.1 54 +26 +26 жарко 1010.5 985.5 +15.9 +25.8
СВ 2 30 км 6/0
[Ac trans Ci sp]
+20.7 +13.6 64 +24 +24 комфорт 1011.0 985.8
СВ 3 30 км 4/0
[Ac trans Ci sp]
+18.6 +13.9 74 +19 +19 1011.0 985.6
СВ 3 30 км 3/0
[Ac trans Ci sp]
+18.3 +13.8 75 +19 +19 1010.6 985.2
В 3 30 км 3/0
[Ac trans]
+16.7 +13.8 83 +16 +16 1011.0 985.4
СВ 3 30 км ясно +16.6 +13.3 81 +16 +16 1010.7 985.1
В 3 30 км 3/0
[Ac trans]
+16.0 +12.7 81 +16 +16 1010.5 984.9
В 3 30 км 3/0
[Ac trans]
+15.1 +12.8 86 +14 +14 1010.3 984.6
В 3 30 км 3/0
[Ac trans]
+14.4 +12.4 88 +13 +13 1009.9 984.2
В 2 30 км 5/0
[Ac trans Ci sp]
+13.7 +11.9 89 +13 +13 1010.0 984.2
В 4 30 км 5/0
[Ac trans Ci sp]
+14.6 +12.5 87 +13 +14 1010.1 984.4
В 2 30 км 5/0
[Ac trans Ci sp]
+16.3 +13.0 81 +16 +19 1009.9 984.3
В 2 30 км 1/1 2000 м
[Sc Ac trans]
+18.8 +14.3 75 +20 +25 1009.8 984.5 +13.6 +22.9
В 2 30 км 1/0
[Ac trans]
+21.2 +14.1 64 +24 +32 комфорт 1009.7 984.6
Ю 4 30 км 1/0
[Ac trans]
+23.3 +13.7 55 +27 +35 душно 1009.6 984.6
Ю 3 30 км 4/4 1500 м
[Cu med, cong Ac trans]
+24.4 +14.2 53 +27 +35 жарко 1009.5 984.6
Ю 5 30 км 5/1 1500 м
[Cu hum Ac trans]
+24.6 +13.2 49 +27 +33 жарко 1009.6 984.8
Ю 4 {10} 30 км 9/1 1500 м
[Cb cap Ac trans Ci sp]
+24.3 +14.1 53 +27 +32 жарко 1009.3 984.4
Ю 4 {10} 30 км 9/3 1000 м
[Cb cap Ac trans Ci sp]
+23.7 +14.1 55 +26 +30 жарко 1009.3 984.4
Ю 4 {9} 30 км 9/3 1500 м
[Cb cap Ac trans Ci sp]
+23.6 +14.3 56 +26 +30 жарко 1009.0 984.1
ЮВ 6 30 км гроза без осадков {ливн. дождь} 9/9 1000 м
[Cb cap]
+22.5 +13.8 58 +26 +26 жарко 1009.4 984.4
ЮВ 5 {11} 15 км слаб. ливневой дождь, в посл. час гроза 10/9 1000 м
[Cb cap]
+17.8 +13.1 74 +17 +18 1010.9 985.4
В 2 15 км слаб. ливневой дождь 9/9 1500 м
[Cb calv]
+16.9 +14.0 83 +17 +17 1010.5 985.0
В 3 30 км в посл. час ливневой дождь 9/0
[Ac trans]
+16.9 +14.5 86 +17 +17 1010.3 984.8
СВ 2 {11} 30 км {гроза, ливн. дождь} 9/0
[Ac trans]
+16.3 +14.8 91 +16 +16 1010.6 985.0 +16.3 +25.5 4
В 3 30 км 9/0
[Ac trans]
+16.0 +14.7 92 +15 +15 1011.4 985.8
В 2 30 км 9/0
[Ac trans]
+15.7 +14.6 93 +16 +16 1011.7 986.0
В 2 30 км 9/0
[Ac trans]
+15.1 +14.1 94 +15 +15 1011.8 986.1
В 3 20 км 9/0
[Ac trans]
+14.8 +14.2 96 +14 +14 1012.0 986.3
В 2 15 км 9/3 2000 м
[Sc Ac trans]
+14.4 +13.8 96 +14 +14 1012.1 986.3
В 1 20 км 9/4 1000 м
[Sc Ac trans]
+14.7 +14.1 96 +15 +15 1012.3 986.5
В 1 20 км 10/1 1000 м
[Sc Ac As]
+14.7 +14.1 96 +15 +15 1012.5 986.7
В 1 20 км 10/0
[Ac As]
+14.8 +14.0 95 +15 +15 1012.6 986.8
Ю 1 20 км 10/3 1000 м
[Sc Ac As]
+15.0 +14.0 94 +15 +15 1012.8 987.1
СВ 1 20 км 10/3 1500 м
[Sc Ac As]
+14.9 +13.9 94 +15 +16 1013.3 987.5
В 1 20 км 9/3 1500 м
[Sc Ac As]
+15.8 +14.7 93 +16 +17 1013.5 987.8
ЮВ 1 30 км 9/4 600 м
[Cu hum Ac As]
+16.4 +14.9 91 +17 +19 1014.1 988.4 +14.2 +16.6 3.7
З 2 30 км 9/4 600 м
[Cu med, cong Ac As]
+18.4 +15.3 82 +19 +22 1014.0 988.5
З 2 30 км 9/6 400 м
[Cu med, cong Ac As]
+18.6 +15.1 80 +20 +22 1014.3 988.8
СЗ 2 30 км 9/9 600 м
[Cb calv]
+18.9 +15.0 78 +21 +22 комфорт 1014.7 989.2
З 1 10 км гроза, ливневой дождь 9/9 600 м
[Cb cap]
+19.2 +15.1 77 +22 +24 комфорт 1014.7 989.3
ЮЗ 4 7000 м гроза, ливневой дождь 9/9 600 м
[Cb cap]
+16.5 +15.0 91 +16 +17 1015.2 989.5
ЮЗ 3 10 км слаб. ливневой дождь, в посл. час гроза 9/9 1000 м
[Cb cap]
+16.9 +15.2 90 +17 +18 1015.5 989.9 2
ЮВ 1 6000 м слаб. ливневой дождь 10/9 1000 м
[Cb calv]
+16.9 +16.1 95 +18 +18 1015.9 990.2
В 3 10 км слаб. ливневой дождь 9/9 210 м
[Cb cap]
+16.9 +16.1 95 +17 +17 1016.0 990.3
ЮВ 1 15 км в посл. час ливневой дождь 9/9 150 м
[Cb calv]
+17.9 +16.4 91 +19 +20 1016.0 990.4
ЮЗ 3 15 км 9/5 180 м
[Cb calv Ac trans]
+17.9 +16.4 91 +18 +19 1015.9 990.3
З 1 15 км в посл. час ливневой дождь 9/3 180 м
[Cb calv Ac trans]
+17.7 +16.4 92 +19 +19 1016.4 990.8
Ю 1 {8} 10 км {ливн. дождь} 9/3 180 м
[St Ac As]
+17.2 +16.4 95 +18 +18 1017.1 991.4 +16.4 +19.4 7
ЮЗ 1 8000 м дымка 9/0
[Ac As]
+16.4 +15.6 95 +17 +17 1017.4 991.7
ЮЗ 2 6000 м дымка 9/0
[Ac As]
+16.2 +15.6 96 +16 +16 1017.8 992.0
С 1 5000 м дымка 9/0
[Ac As]
+16.0 +15.4 96 +17 +17 1017.9 992.1
В 1 2500 м дымка 9/9 120 м
[St]
+16.2 +15.7 97 +17 +17 1018.2 992.4
штиль 0 100 м туман, небо видно 10/10 30 м
[St]
+15.6 +15.1 97 +15 +15 1018.4 992.6
штиль 0 500 м туман, небо видно 10/10 60 м
[St]
+15.3 +14.8 97 +15 +15 1018.7 992.8
З 1 900 м туман, небо видно 9/3 60 м
[St Ac As]
+14.8 +14.3 97 +15 +15 1018.6 992.7
З 1 300 м туман, небо видно 9/6 60 м
[St Ac As]
+14.8 +14.3 97 +15 +15 1018.5 992.6
СЗ 1 600 м туман, небо видно 6/4 60 м
[St Ac trans]
+12.6 +12.1 97 +12 +12 1018.8 992.7
СВ 1 400 м туман, небо видно 10/10 180 м
[St]
+13.8 +13.5 98 +14 +14 1019.1 993.1
ЮВ 1 100 м туман, небо видно 10/10 30 м
[St]
+14.4 +13.9 97 +15 +15 1019.4 993.4
В 1 400 м туман, небо видно 10/10 30 м
[St]
+15.1 +14.6 97 +16 +16 1019.7 993.8 +12.6 +17.2 6.6
СВ 2 10 км в посл. час туман 9/9 90 м
[St]
+16.1 +15.6 97 +16 +17 1019.9 994.1
В 3 30 км 3/3 400 м
[Cu hum]
+19.5 +14.5 73 +21 +29 комфорт 1019.5 994.0
В 3 30 км {туман} 1/1 600 м
[Cu hum]
+20.9 +16.9 78 +25 +37 комфорт 1019.5 994.1
В 4 30 км 1/1 600 м
[Cu med, cong]
+22.8 +17.5 72 +28 +38 душно 1019.1 993.9
В 5 30 км 3/1 600 м
[Cb cap]
+24.4 +15.6 58 +27 +35 жарко 1018.6 993.5
В 6-11 {11} 30 км гроза без осадков {туман} 8/3 600 м
[Cb cap Ci sp]
+25.0 +15.0 54 +28 +32 жарко 1018.4 993.4
З 2 {16} 20 км слаб. ливневой дождь, в посл. час гроза 9/9 1000 м
[Cb cap]
+19.7 +13.4 67 +22 +23 комфорт 1019.0 993.5
С 1 {10} 30 км в посл. час ливневой дождь 8/5 1000 м
[Cb cap Ci sp]
+21.6 +13.2 59 +24 +29 комфорт 1018.4 993.1
ЮЗ 1 {16} 30 км {гроза, ливн. дождь} 6/1 1000 м
[Cb cap Ci sp]
+23.5 +15.0 59 +26 +32 жарко 1018.4 993.2
З 3 30 км 8/1 1000 м
[Cb cap Ac trans Ci sp]
+23.6 +12.3 49 +25 +27 комфорт 1018.1 993.0
ЮЗ 6 {10} 20 км слаб. ливневой дождь 9/4 600 м
[Cb cap Ac trans Ci sp]
+22.4 +9.5 44 +24 +24 комфорт 1017.9 992.7
ЮЗ 7 {16} 20 км слаб. ливневой дождь 9/5 600 м
[Cb cap Ac trans Ci sp]
+19.0 +12.7 67 +19 +19 1019.2 993.6 +15.0 +25.5 0.9
Ю 2 {10} 20 км слаб. ливневой дождь 9/5 1000 м
[Cb cap Ac trans]
+17.7 +11.3 66 +18 +18 1020.4 994.7
В 1 20 км слаб. ливневой дождь 9/5 1000 м
[Cb cap Ac trans]
+16.8 +13.3 80 +18 +18 1020.8 995.0
В 1 {10} 30 км в посл. час ливневой дождь 8/0
[Ac trans]
+16.0 +12.5 80 +17 +17 1020.8 994.9
Ю 3 30 км 8/3 1000 м
[Cb calv Ac trans]
+14.6 +13.1 91 +14 +14 1021.3 995.3
ЮВ 1 30 км 4/0
[Ac trans]
+14.1 +13.0 93 +14 +14 1021.2 995.2
СВ 2 {10} 30 км {ливн. дождь} 4/0
[Ac trans]
+14.0 +12.4 90 +13 +13 1021.1 995.1 0.3
В 1 30 км 4/0
[Ac trans]
+13.4 +11.8 90 +14 +14 1021.1 995.0
штиль 0 30 км 4/0
[Ac trans]
+12.5 +11.7 95 +12 +12 1021.0 994.8
СВ 2 20 км туман поземный 4/0
[Ac trans]
+11.3 +10.5 95 +10 +10 1021.1 994.8
СВ 2 20 км 5/0
[Ac trans Ci fib]
+11.6 +10.8 95 +10 +11 1021.6 995.3
ЮЗ 2 30 км 4/0
[Ac trans Ci fib]
+14.6 +12.6 88 +14 +16 1021.5 995.5
ЮВ 1 30 км 3/0
[Ac trans Ci fib]
+18.6 +12.6 68 +20 +26 1021.0 995.4 +10.7 +19.0 0.3 1.2
ЮВ 2 30 км 1/0
[Ci fib]
+20.0 +12.7 63 +22 +32 комфорт 1020.8 995.3
В 2 30 км 1/0
[Ac trans]
+22.1 +11.8 52 +24 +36 комфорт 1020.5 995.2
ЮЗ 2 30 км 1/1 1000 м
[Cu med, cong Ac trans]
+23.1 +12.4 51 +26 +40 жарко 1020.6 995.4
Ю 2 30 км 1/1 1500 м
[Cb cap]
+24.3 +11.6 45 +26 +41 жарко 1020.4 995.3
ЮВ 1 30 км 3/3 1500 м
[Cb cap]
+24.6 +12.5 47 +26 +40 жарко 1020.0 994.9
ЮВ 2 30 км 8/3 1500 м
[Cb cap Ci ing]
+24.9 +12.1 45 +27 +36 жарко 1019.9 994.8
ЮВ 4 30 км 9/4 1500 м
[Cb cap Ci ing]
+24.3 +13.5 51 +27 +31 жарко 1019.2 994.1
В 4 {10} 30 км 9/1 1500 м
[Cb cap Ci ing]
+23.3 +14.0 56 +27 +32 душно 1018.9 993.7
В 4 {10} 30 км 8/1 1500 м
[Cu med, cong Ac cuf Ci ing]
+24.0 +12.9 50 +26 +28 жарко 1018.7 993.6
В 4 30 км 8/1 1500 м
[Cu med, cong Ac cuf Ci ing]
+24.4 +10.3 41 +25 +27 комфорт 1018.4 993.3
В 4 30 км 6/1 1500 м
[Cu med, cong Ci ing]
+22.9 +11.0 47 +25 +26 комфорт 1019.2 994.0
В 4 {10} 30 км 6/1 1500 м
[Cu med, cong Ci sp]
+20.1 +11.8 59 +22 +22 комфорт 1019.5 994.0 +18.3 +25.8
В 5 30 км 6/0
[Ci sp]
+18.1 +11.9 67 +18 +18 1020.2 994.5
В 3 30 км 6/0
[Ci sp]
+17.0 +11.7 71 +17 +17 1020.6 994.8
В 3 30 км 4/0
[Ci sp]
+15.6 +11.2 75 +15 +15 1020.7 994.8
Ю 2 {9} 30 км ясно +14.1 +11.3 83 +14 +14 1021.0 995.0
В 1 30 км ясно +13.8 +11.1 84 +14 +14 1021.1 995.0
В 2 {9} 30 км ясно +12.9 +11.0 88 +12 +12 1020.9 994.8
СВ 2 30 км ясно +11.7 +10.4 92 +10 +10 1020.8 994.6
В 2 30 км 1/0
[Ac trans]
+11.5 +10.7 95 +10 +10 1021.0 994.7
СВ 2 30 км 3/0
[Ac trans]
+10.9 +10.0 94 +9 +10 1021.1 994.8
В 2 30 км 3/0
[Ac trans]
+13.2 +11.4 89 +12 +13 1021.0 994.9
В 1 30 км 3/0
[Ac trans]
+14.7 +11.7 82 +15 +18 1021.1 995.1
В 1 30 км 3/0
[Ac trans Ci sp]
+17.5 +12.6 73 +19 +25 1021.2 995.5 +10.6 +20.1
В 2 30 км 1/0
[Ci sp]
+19.8 +13.5 67 +22 +31 комфорт 1021.1 995.6
В 3 30 км 3/1 600 м
[Cu hum Ci sp]
+22.0 +13.9 60 +25 +34 комфорт 1020.9 995.6
В 5 30 км 3/1 1000 м
[Cu hum Ci sp]
+23.9 +9.5 40 +25 +32 комфорт 1021.0 995.8
В 6 30 км 3/1 1000 м
[Cu hum Ci sp]
+25.2 +9.1 36 +26 +32 жарко 1021.0 995.9
В 7 30 км 3/1 1500 м
[Cu hum Ci sp]
+25.4 +4.5 26 +25 +29 комфорт 1020.9 995.8
В 6 {11} 30 км 3/3 1500 м
[Cu med, cong Ci sp]
+25.6 +5.7 28 +25 +29 комфорт 1020.4 995.4
В 6 {11} 30 км 3/3 1500 м
[Cu med, cong Ci sp]
+26.1 +7.6 31 +26 +30 жарко 1020.2 995.2
В 5 30 км 3/3 1500 м
[Cu med, cong Ci sp]
+25.8 +5.9 28 +25 +29 комфорт 1019.9 994.9
В 6 {11} 30 км 3/3 1500 м
[Cb calv Ci sp]
+25.7 +5.8 28 +25 +27 комфорт 1019.7 994.7
В 5 30 км 3/1 1500 м
[Cb calv Ci sp]
+25.3 +4.4 26 +25 +26 комфорт 1019.5 994.5
В 4 30 км 3/1 1500 м
[Cu med, cong Ci sp]
+24.0 +6.3 32 +24 +25 комфорт 1020.1 994.9
В 2 {11} 30 км 3/0
[Ci sp]
+22.1 +5.5 34 +23 +23 комфорт 1020.2 994.9 +17.5 +26.1
С 2 30 км 1/0
[Ci sp]
+18.0 +7.1 49 +19 +19 1021.1 995.4
СВ 2 30 км 5/0
[Ci sp]
+17.1 +8.2 56 +17 +17 1021.5 995.7
В 2 30 км 5/0
[Ci sp]
+16.0 +7.7 58 +16 +16 1021.7 995.8
СВ 1 30 км 3/0
[Ci sp]
+15.0 +7.5 61 +16 +16 1022.3 996.3
В 2 30 км ясно +13.4 +7.6 68 +13 +13 1022.4 996.3
В 2 30 км ясно +12.2 +7.7 74 +11 +11 1022.2 996.0
В 3 30 км ясно +11.4 +7.1 75 +10 +10 1022.2 995.9
В 1 30 км ясно +10.5 +6.1 74 +10 +10 1022.3 995.9
СВ 1 30 км ясно +10.2 +5.8 74 +10 +10 1022.4 996.0
В 3 30 км ясно +11.8 +7.3 74 +10 +11 1022.5 996.2
В 4 30 км 1/0
[Ci fib]
+13.8 +7.8 67 +12 +14 1022.6 996.5
В 3 30 км 1/0
[Ci fib]
+17.0 +7.9 55 +17 +22 1022.4 996.6 +9.6 +22.1
В 3 30 км 1/0
[Ci fib]
+20.3 +8.9 48 +22 +30 комфорт 1021.9 996.4
В 4 30 км 1/0
[Ci fib]
+22.6 +8.3 40 +24 +32 комфорт 1021.7 996.4
В 5 30 км 1/0
[Ci fib]
+24.3 +4.6 28 +24 +32 комфорт 1021.5 996.3
В 7 30 км 1/1 1500 м
[Cu hum Ci fib]
+24.9 +4.1 26 +24 +29 комфорт 1021.2 996.1
В 7 30 км 1/1 1500 м
[Cu hum Ci fib]
+25.3 +6.0 29 +25 +29 комфорт 1021.0 995.9
В 7-12 {12} 30 км 1/1 1500 м
[Cu hum Ci fib]
+25.2 +4.9 27 +25 +29 комфорт 1020.5 995.4
В 7 30 км 1/1 1500 м
[Cu hum Ci fib]
+25.5 +3.4 24 +25 +28 комфорт 1020.0 995.0
В 6 30 км 1/1 1500 м
[Cu hum Ci fib]
+25.6 +3.5 24 +25 +28 комфорт 1019.6 994.6
В 7 30 км 3/1 1500 м
[Cu hum Ci fib]
+25.2 +2.6 23 +24 +26 комфорт 1019.2 994.2
В 6 30 км 3/1 1500 м
[Cu hum Ci fib]
+24.7 +4.4 27 +24 +25 комфорт 1018.9 993.8
В 5 30 км 3/1 1500 м
[Cu hum Ci fib]
+23.3 +4.3 29 +23 +24 комфорт 1018.8 993.6
В 4 30 км 3/1 1500 м
[Cu hum Ci fib]
+20.9 +5.7 37 +22 +22 комфорт 1018.8 993.4 +17.0 +26.0
В 3 30 км 1/0
[Ci fib]
+20.2 +5.0 37 +21 +21 комфорт 1019.1 993.6
В 1 30 км 1/0
[Ci fib]
+17.7 +5.6 45 +19 +19 1019.3 993.6
СВ 2 30 км 1/0
[Ci fib]
+14.3 +6.4 59 +14 +14 1019.6 993.6
СВ 3 30 км 4/0
[Ci sp]
+13.9 +6.3 60 +13 +13 1019.5 993.5
СВ 2 30 км 4/0
[Ci sp]
+11.9 +6.6 70 +11 +11 1019.6 993.4
штиль 0 30 км 1/0
[Ci sp]
+11.5 +5.8 68 +11 +11 1019.6 993.4
СВ 2 30 км ясно +9.7 +6.0 78 +8 +8 1019.5 993.1
В 1 30 км ясно +8.2 +6.3 88 +7 +7 1019.3 992.8
СВ 1 30 км 1/0
[Ci sp]
+8.7 +6.5 86 +8 +8 1019.1 992.6
Ю 1 30 км 1/0
[Ac trans]
+11.3 +7.8 79 +11 +12 1018.7 992.5
Ю 1 30 км 1/0
[Ac trans]
+15.4 +9.7 69 +16 +19 1018.0 992.2
В 2 30 км 3/0
[Ac trans]
+17.1 +10.0 63 +17 +22 1018.1 992.4 +8.1 +21.0
В 5 30 км 3/0
[Ac trans]
+19.2 +9.9 55 +20 +24 1018.1 992.6
В 6 30 км 4/0
[Ac trans]
+22.1 +8.9 43 +23 +27 комфорт 1018.1 992.8
В 6 30 км 8/0
[Ac trans Ci sp]
+21.7 +7.9 41 +23 +27 комфорт 1018.2 992.9
В 8 {14} 30 км 9/1 1500 м
[Cu hum Ac trans Ci sp]
+21.9 +7.3 39 +23 +24 комфорт 1018.1 992.8
В 6 30 км 9/1 1500 м
[Cu hum Ac trans Ci sp]
+20.6 +7.6 43 +22 +25 комфорт 1017.8 992.4
В 4 {14} 30 км 9/0
[Ac trans Ci sp]
+20.9 +7.5 42 +22 +29 комфорт 1017.2 991.9
В 6 30 км 8/0
[Ac trans Ci sp]
+22.4 +8.9 42 +24 +27 комфорт 1016.4 991.2
В 8 30 км 8/4 1500 м
[Sc Ac trans Ci sp]
+22.0 +8.8 43 +23 +24 комфорт 1015.8 990.6
В 5 30 км 6/5 1500 м
[Sc Ci sp]
+22.7 +9.8 44 +24 +26 комфорт 1015.1 990.0
Местоположение метеостанции Жешув (Польша): широта 50.10 долгота 22.05 высота над уровнем моря 201 м.
В архиве по умолчанию представлена погода в Жешуве за последнюю неделю. Архивные данные за месяц целиком и за предыдущие месяцы, начиная с января 2011 года, Вы можете получить, выбрав интересующий диапазон дат из раскрывающегося списка и нажав кнопку "Найти!".
*Определитесь, кто Вы:
Внимание! Время в таблицах - всемирное. Для получения местного времени необходимо прибавить поправку, которая равна 1 ч.
Некоторые строки с данными для отдельных станций могут быть выделены курсивом. Это означает, что фактические данные отсутствуют по различным причинам, а приведенные значения являются расчетными модельными данными для данного пункта наблюдений.
Смотрите также архив погоды в соседних городах и на ближайших метеорологических станциях:
Партнеры нашего сайта:      
Пояснения к столбцам:
  • Ветер - указаны скорость ветра в м/с - средняя за 10 мин, порывы в срок и между сроками (в фигурных скобках) и направление, откуда дует ветер: С - северный,
  • СВ - северо-восточный, В - восточный, ЮВ - юго-восточный, Ю - южный, ЮЗ - юго-западный, З - западный, СЗ - северо-западный.
  • Видимость - горизонтальная дальность видимости в метрах или километрах. При видимости от 1 до 10 км при отсутствии осадков обычно наблюдается дымка, при ухудшении видимости до 1 км и менее - туман. В сухую погоду видимость может ухудшаться дымом, пылью или мглою.
  • Явления - указаны атмосферные явления, наблюдавшиеся в срок или в последний час перед сроком; фигурными скобками обозначены явления, наблюдавшиеся между сроками (за 1-3 часа до срока); квадратными скобками обозначены град или гололедные отложения с указанием их диаметра в мм.
  • Облачность - указаны через наклонную черту общая и нижняя облачность в баллах и высота нижней границы облаков в метрах; квадратными скобками обозначены формы облаков: Ci - перистые, Cs - перисто-слоистые, Cc - перисто-кучевые, Ac - высококучевые, As - высокослоистые, Sc - слоисто-кучевые, Ns - слоисто-дождевые, Cu - кучевые, Cb - кучево-дождевые. Подробнее классификацию облаков см. в Атласе облаков (PDF).
  • T - Температура воздуха - температура, измеренная на высоте 2 м над землей.
  • Td - Температура точки росы - температура, при понижении до которой содержащийся в воздухе водяной пар достигнет насыщения.
  • f - Относительная влажность воздуха - влажноcть воздуха, измеренная на высоте 2 м над землей.
  • Te - Эффективная температура - температура, которую ощущает одетый по сезону человек в тени. Характеристика душности погоды. При расчете учитывается влияние влажности воздуха и скорости ветра на теплоощущения человека.
  • Tes - Эффективная температура на солнце - температура, которую ощущает человек, с поправкой на солнечный нагрев. Характеристика знойности погоды. Зависит от высоты солнца над горизонтом, облачности и скорости ветра. Ночью, в пасмурную погоду, а также при ветре 12 м/с и более поправка равна нулю.
  • P - Атмосферное давление - приведенное к уровню моря атмосферное давление.
  • Po - Атмосферное давление - измеренное на уровне метеостанции атмосферное давление.
  • Tmin - Минимальная температура - минимум температуры воздуха на высоте 2 м над землей.
  • Tmax - Максимальная температура - максимум температуры воздуха на высоте 2 м над землей.
  • R - Количество осадков - Количество выпавших осадков за период времени, мм. При наведении курсора мыши на число - период времени, за который выпало указанное количество осадков.
  • R24 - Количество осадков - Количество выпавших осадков за 24 часа, мм.
  • S - Снежный покров - Высота снежного покрова, см. При наведении курсора мыши на число - состояние снежного покрова и степень покрытия местности в баллах.